TimeCST,TemperatureF,Dew PointF,Humidity,Sea Level PressureIn,VisibilityMPH,Wind Direction,Wind SpeedMPH,Gust SpeedMPH,PrecipitationIn,Events,Conditions,WindDirDegrees,DateUTC
12:23 AM,-0.4,-4.0,85,30.33,10.0,Calm,Calm,-,N/A,,Mostly Cloudy,0,2013-03-07 06:23:00
12:44 AM,-7.6,-11.2,84,30.33,9.0,Calm,Calm,-,N/A,,Scattered Clouds,0,2013-03-07 06:44:00
12:55 AM,-4.0,-9.9,76,30.43,10.0,Calm,Calm,-,N/A,,Mostly Cloudy,0,2013-03-07 06:55:00
1:23 AM,-5.8,-9.4,84,30.33,8.0,Calm,Calm,-,N/A,,Scattered Clouds,0,2013-03-07 07:23:00
1:55 AM,-4.0,-7.1,87,30.43,10.0,Calm,Calm,-,N/A,,Clear,0,2013-03-07 07:55:00
2:55 AM,-4.0,-9.0,79,30.43,9.0,Calm,Calm,-,N/A,,Clear,0,2013-03-07 08:55:00
3:55 AM,-9.9,-14.1,82,30.45,6.0,Calm,Calm,-,N/A,,Clear,0,2013-03-07 09:55:00
4:55 AM,-9.9,-14.1,82,30.45,10.0,Calm,Calm,-,N/A,,Clear,0,2013-03-07 10:55:00
5:47 AM,-5.8,-9.4,84,30.35,10.0,Calm,Calm,-,N/A,,Scattered Clouds,0,2013-03-07 11:47:00
5:55 AM,-8.0,-11.0,86,30.45,9.0,Calm,Calm,-,N/A,,Mostly Cloudy,0,2013-03-07 11:55:00
6:30 AM,-5.8,-11.2,77,30.36,1.5,Calm,Calm,-,N/A,,Haze,0,2013-03-07 12:30:00
6:36 AM,-4.0,-9.4,78,30.36,0.2,Calm,Calm,-,N/A,,Haze,0,2013-03-07 12:36:00
6:55 AM,-5.1,-9.0,83,30.45,0.2,Calm,Calm,-,N/A,Fog,Light Freezing Fog,0,2013-03-07 12:55:00
7:07 AM,-4.0,-7.6,85,30.35,1.0,Calm,Calm,-,N/A,,Mist,0,2013-03-07 13:07:00
7:14 AM,-5.8,-9.4,84,30.36,10.0,Calm,Calm,-,N/A,,Scattered Clouds,0,2013-03-07 13:14:00
7:55 AM,-2.0,-5.1,87,30.46,10.0,Calm,Calm,-,N/A,,Clear,0,2013-03-07 13:55:00
8:55 AM,12.0,8.1,84,30.44,10.0,East,6.9,-,N/A,,Clear,100,2013-03-07 14:55:00
9:55 AM,18.0,10.9,74,30.45,10.0,SE,8.1,-,N/A,,Clear,130,2013-03-07 15:55:00
10:55 AM,21.9,12.0,66,30.44,10.0,SE,5.8,-,N/A,,Clear,130,2013-03-07 16:55:00
11:55 AM,25.0,12.0,58,30.43,10.0,SE,4.6,-,N/A,,Clear,140,2013-03-07 17:55:00
12:55 PM,28.0,12.9,53,30.41,10.0,Variable,4.6,-,N/A,,Clear,0,2013-03-07 18:55:00
1:55 PM,28.9,12.9,51,30.38,10.0,East,3.5,-,N/A,,Clear,90,2013-03-07 19:55:00
2:55 PM,30.0,14.0,51,30.36,10.0,ESE,4.6,-,N/A,,Clear,120,2013-03-07 20:55:00
3:55 PM,32.0,14.0,48,30.35,10.0,SE,8.1,-,N/A,,Clear,130,2013-03-07 21:55:00
4:55 PM,30.9,12.9,47,30.35,10.0,SSE,5.8,-,N/A,,Clear,150,2013-03-07 22:55:00
5:55 PM,28.9,12.9,51,30.35,10.0,SSE,5.8,-,N/A,,Clear,150,2013-03-07 23:55:00
6:55 PM,21.0,12.0,68,30.35,10.0,Calm,Calm,-,N/A,,Clear,0,2013-03-08 00:55:00
7:55 PM,19.0,10.0,68,30.34,10.0,East,5.8,-,N/A,,Scattered Clouds,100,2013-03-08 01:55:00
8:55 PM,24.1,15.1,69,30.31,10.0,SE,5.8,-,N/A,,Scattered Clouds,130,2013-03-08 02:55:00
9:55 PM,27.0,16.0,63,30.30,10.0,SSE,6.9,-,N/A,,Mostly Cloudy,150,2013-03-08 03:55:00
10:55 PM,27.0,16.0,63,30.31,10.0,SE,5.8,-,N/A,,Overcast,140,2013-03-08 04:55:00
11:55 PM,26.1,16.0,66,30.31,10.0,SSE,8.1,-,N/A,,Overcast,150,2013-03-08 05:55:00